Regional Weather Roundup
Issued by NWS Cleveland, OH

Home | Current Version | Previous Version | Text Only | Print | Product List | Glossary Off
Versions: 1 2 3 4 5 6 7 8 9 10 11 12 13 14 15 16 17 18 19 20 21 22 23 24 25 26 27 28 29 30 31 32 33 34 35 36 37 38 39 40 41 42 43 44 45 46 47 48 49 50

000
ASUS41 KCLE 200810
RWRCLE
OHIO REGIONAL WEATHER ROUNDUP
NATIONAL WEATHER SERVICE WILMINGTON, OH
300 AM EST SAT JAN 20 2018

NOTE: "FAIR" INDICATES FEW OR NO CLOUDS BELOW 12,000 FEET WITH NO
SIGNIFICANT WEATHER AND/OR OBSTRUCTIONS TO VISIBILITY.

OHZ001>008-015>018-024>027-034-035-043-044-200900-
   NORTHWEST OHIO

CITY           SKY/WX    TMP DP  RH WIND       PRES   REMARKS
DEFIANCE       FAIR      33  22  63 SW14G24   29.88R WCI  23
FINDLAY        FAIR      35  23  61 SW15G23   29.89R WCI  25
TOLEDO EXPRESS FAIR      35  25  66 SW17G25   29.84R WCI  25
TOLEDO EXEC    FAIR      34  24  67 SW20      29.86R WCI  23
LIMA           FAIR      35  25  66 SW20      29.92R WCI  24
$$

OHZ009>014-019>023-028>033-038-089-200900-
   NORTHEAST OHIO

CITY           SKY/WX    TMP DP  RH WIND       PRES   REMARKS
CLE-HOPKINS    MOCLDY    39  25  57 SW21G30   29.90R
CLE-LAKEFRONT  FAIR      38  23  55 S18G28    29.87S
CUY CO. ARPT   NOT AVBL
LORAIN-ELYRIA  FAIR      34  20  56 SW20      29.88R WCI  23
ASHTABULA      FAIR      34  21  59 SW13      29.87R WCI  25
AKRON-CANTON   FAIR      32  21  64 SW14      29.92R WCI  22
WOOSTER        FAIR      33  22  63 SW14G22   29.93R WCI  23
MANSFIELD      FAIR      34  23  64 SW17      29.91R WCI  23
YOUNGSTOWN     FAIR      34  21  59 SW14      29.90R WCI  25
$$

OHZ042-051>053-060>062-070>072-077>081-200900-
  SOUTHWEST OHIO

CITY           SKY/WX    TMP DP  RH WIND       PRES   REMARKS
CINC-COVINGTON MOCLDY    36  25  64 SW13      30.01S
CINC-LUNKEN    FAIR      30  22  72 MISG      30.06R
HAMILTON       FAIR      36  24  62 VRB6      30.03R
DAYTON         MOCLDY    32  23  69 SW15      29.97R WCI  22
WRIGHT-PAT AFB FAIR      35  16  46 SW18G25   29.97R WCI  24
DAYTON GENERAL FAIR      35  23  61 SW13G23   29.99R WCI  26
WILMINGTON     FAIR      33  24  69 SW21      29.99R WCI  21
$$

OHZ036-037-039>041-045>050-054>059-063>069-073>076-082>088-200900-
  CENTRAL AND SOUTHEAST OHIO

CITY           SKY/WX    TMP DP  RH WIND       PRES   REMARKS
COLUMBUS       MOCLDY    31  21  66 S6        29.99R WCI  25
OSU AIRPORT    FAIR      32  22  66 SW7       29.98R WCI  26
BOLTON FIELD   FAIR      32  22  67 SW14      29.99R WCI  22
RICKENBACK AFB FAIR      32  22  67 SW14      30.00R WCI  22
NEWARK         FAIR      37  23  56 SW9G21    29.98R
MARION         FAIR      32  22  66 SW13      29.94R WCI  22
LANCASTER      FAIR      37  24  59 SW12G18   30.01R
ZANESVILLE     FAIR      31  18  58 S7        30.01R WCI  24
NEW PHILLY     FAIR      35  20  54 VRB7      29.99R WCI  29
$$




USA.gov is the U.S. government's official web portal to all federal, state and local government web resources and services.